Time,TemperatureF,DewpointF,PressureIn,WindDirection,WindDirectionDegrees,WindSpeedMPH,WindSpeedGustMPH,Humidity,HourlyPrecipIn,Conditions,Clouds,dailyrainin,SoftwareType,DateUTC
2013-02-21 00:03:00,26.2,9.1,30.24,West,270,0.0,0.0,48,0.00,,,0.00,WUHU216HW,2013-02-21 05:03:00,
2013-02-21 00:08:00,26.0,8.9,30.25,West,270,0.0,0.0,48,0.00,,,0.00,WUHU216HW,2013-02-21 05:08:00,
2013-02-21 00:13:00,26.0,9.4,30.25,NW,315,0.0,0.0,49,0.00,,,0.00,WUHU216HW,2013-02-21 05:13:00,
2013-02-21 00:18:00,26.2,9.5,30.25,NW,315,0.0,0.0,49,0.00,,,0.00,WUHU216HW,2013-02-21 05:18:00,
2013-02-21 00:23:00,26.2,9.5,30.24,NW,315,0.0,0.0,49,0.00,,,0.00,WUHU216HW,2013-02-21 05:23:00,
2013-02-21 00:28:00,26.0,9.4,30.25,NW,315,0.0,0.0,49,0.00,,,0.00,WUHU216HW,2013-02-21 05:28:00,
2013-02-21 00:33:00,25.8,8.7,30.25,NW,315,0.0,0.0,48,0.00,,,0.00,WUHU216HW,2013-02-21 05:33:00,
2013-02-21 00:38:00,25.7,9.1,30.24,NW,315,0.0,0.0,49,0.00,,,0.00,WUHU216HW,2013-02-21 05:38:00,
2013-02-21 00:43:00,25.5,8.9,30.24,NW,315,0.0,0.0,49,0.00,,,0.00,WUHU216HW,2013-02-21 05:43:00,
2013-02-21 00:48:00,25.5,8.9,30.24,NW,315,0.0,0.0,49,0.00,,,0.00,WUHU216HW,2013-02-21 05:48:00,
2013-02-21 00:53:00,25.3,8.7,30.24,NW,315,0.0,0.0,49,0.00,,,0.00,WUHU216HW,2013-02-21 05:53:00,
2013-02-21 00:58:00,25.3,8.7,30.24,NW,315,0.0,0.0,49,0.00,,,0.00,WUHU216HW,2013-02-21 05:58:00,
2013-02-21 01:03:00,25.3,8.7,30.24,NW,315,0.0,0.0,49,0.00,,,0.00,WUHU216HW,2013-02-21 06:03:00,
2013-02-21 01:08:00,25.1,9.1,30.24,NW,315,0.0,0.0,50,0.00,,,0.00,WUHU216HW,2013-02-21 06:08:00,
2013-02-21 01:13:00,25.1,9.1,30.24,NW,315,0.0,0.0,50,0.00,,,0.00,WUHU216HW,2013-02-21 06:13:00,
2013-02-21 01:18:00,24.9,8.9,30.24,NW,315,0.0,0.0,50,0.00,,,0.00,WUHU216HW,2013-02-21 06:18:00,
2013-02-21 01:23:00,24.9,8.9,30.24,NW,315,0.0,0.0,50,0.00,,,0.00,WUHU216HW,2013-02-21 06:23:00,
2013-02-21 01:28:00,24.8,9.1,30.24,NW,315,0.0,0.0,51,0.00,,,0.00,WUHU216HW,2013-02-21 06:28:00,
2013-02-21 01:33:00,24.8,9.1,30.24,NW,315,0.0,0.0,51,0.00,,,0.00,WUHU216HW,2013-02-21 06:33:00,
2013-02-21 01:38:00,24.6,9.0,30.24,NW,315,0.0,0.0,51,0.00,,,0.00,WUHU216HW,2013-02-21 06:38:00,
2013-02-21 01:43:00,24.6,9.0,30.24,NW,315,0.0,0.0,51,0.00,,,0.00,WUHU216HW,2013-02-21 06:43:00,
2013-02-21 01:48:00,24.6,9.4,30.24,NW,315,0.0,0.0,52,0.00,,,0.00,WUHU216HW,2013-02-21 06:48:00,
2013-02-21 01:53:00,24.4,9.2,30.24,NW,315,0.0,0.0,52,0.00,,,0.00,WUHU216HW,2013-02-21 06:53:00,
2013-02-21 01:58:00,24.6,9.4,30.24,NW,315,0.0,0.0,52,0.00,,,0.00,WUHU216HW,2013-02-21 06:58:00,
2013-02-21 02:03:00,24.4,9.6,30.25,NW,315,0.0,0.0,53,0.00,,,0.00,WUHU216HW,2013-02-21 07:03:00,
2013-02-21 02:08:00,24.4,9.6,30.25,NW,315,0.0,0.0,53,0.00,,,0.00,WUHU216HW,2013-02-21 07:08:00,
2013-02-21 02:13:00,24.4,9.6,30.25,NW,315,0.0,0.0,53,0.00,,,0.00,WUHU216HW,2013-02-21 07:13:00,
2013-02-21 02:18:00,24.4,10.0,30.25,NW,315,0.0,0.0,54,0.00,,,0.00,WUHU216HW,2013-02-21 07:18:00,
2013-02-21 02:23:00,24.4,9.6,30.25,NW,315,0.0,0.0,53,0.00,,,0.00,WUHU216HW,2013-02-21 07:23:00,
2013-02-21 02:28:00,24.4,10.0,30.25,NW,315,0.0,0.0,54,0.00,,,0.00,WUHU216HW,2013-02-21 07:28:00,
2013-02-21 02:33:00,24.4,10.0,30.25,NW,315,0.0,0.0,54,0.00,,,0.00,WUHU216HW,2013-02-21 07:33:00,
2013-02-21 02:38:00,24.4,10.0,30.24,NW,315,0.0,0.0,54,0.00,,,0.00,WUHU216HW,2013-02-21 07:38:00,
2013-02-21 02:43:00,24.4,10.0,30.24,NW,315,0.0,0.0,54,0.00,,,0.00,WUHU216HW,2013-02-21 07:43:00,
2013-02-21 02:48:00,24.4,10.5,30.25,NW,315,0.0,0.0,55,0.00,,,0.00,WUHU216HW,2013-02-21 07:48:00,
2013-02-21 02:53:00,24.4,10.5,30.25,NW,315,0.0,0.0,55,0.00,,,0.00,WUHU216HW,2013-02-21 07:53:00,
2013-02-21 02:58:00,24.2,10.3,30.24,NW,315,0.0,0.0,55,0.00,,,0.00,WUHU216HW,2013-02-21 07:58:00,
2013-02-21 03:03:00,24.0,10.1,30.25,NW,315,0.0,0.0,55,0.00,,,0.00,WUHU216HW,2013-02-21 08:03:00,
2013-02-21 03:08:00,24.0,10.1,30.25,NW,315,0.0,0.0,55,0.00,,,0.00,WUHU216HW,2013-02-21 08:08:00,
2013-02-21 03:13:00,24.0,10.1,30.25,NW,315,0.0,0.0,55,0.00,,,0.00,WUHU216HW,2013-02-21 08:13:00,
2013-02-21 03:18:00,24.0,10.1,30.25,NW,315,0.0,0.0,55,0.00,,,0.00,WUHU216HW,2013-02-21 08:18:00,
2013-02-21 03:23:00,23.9,9.9,30.25,NW,315,0.0,0.0,55,0.00,,,0.00,WUHU216HW,2013-02-21 08:23:00,
2013-02-21 03:28:00,23.7,9.8,30.25,NW,315,0.0,0.0,55,0.00,,,0.00,WUHU216HW,2013-02-21 08:28:00,
2013-02-21 03:33:00,23.7,9.4,30.24,NW,315,0.0,0.0,54,0.00,,,0.00,WUHU216HW,2013-02-21 08:33:00,
2013-02-21 03:38:00,23.5,9.2,30.24,NW,315,0.0,0.0,54,0.00,,,0.00,WUHU216HW,2013-02-21 08:38:00,
2013-02-21 03:43:00,23.5,9.2,30.24,NW,315,0.0,0.0,54,0.00,,,0.00,WUHU216HW,2013-02-21 08:43:00,
2013-02-21 03:48:00,23.5,9.6,30.24,NW,315,0.0,0.0,55,0.00,,,0.00,WUHU216HW,2013-02-21 08:48:00,
2013-02-21 03:53:00,23.3,9.4,30.24,NW,315,0.0,0.0,55,0.00,,,0.00,WUHU216HW,2013-02-21 08:53:00,
2013-02-21 03:58:00,23.3,9.4,30.24,NW,315,0.0,0.0,55,0.00,,,0.00,WUHU216HW,2013-02-21 08:58:00,
2013-02-21 04:03:00,23.1,9.3,30.24,NW,315,0.0,0.0,55,0.00,,,0.00,WUHU216HW,2013-02-21 09:03:00,
2013-02-21 04:08:00,23.1,9.6,30.24,NW,315,0.0,0.0,56,0.00,,,0.00,WUHU216HW,2013-02-21 09:08:00,
2013-02-21 04:13:00,23.1,10.0,30.24,NW,315,0.0,0.0,57,0.00,,,0.00,WUHU216HW,2013-02-21 09:13:00,
2013-02-21 04:18:00,23.1,10.0,30.24,NW,315,0.0,0.0,57,0.00,,,0.00,WUHU216HW,2013-02-21 09:18:00,
2013-02-21 04:23:00,23.0,9.9,30.24,NW,315,0.0,0.0,57,0.00,,,0.00,WUHU216HW,2013-02-21 09:23:00,
2013-02-21 04:28:00,23.0,9.9,30.24,NW,315,0.0,0.0,57,0.00,,,0.00,WUHU216HW,2013-02-21 09:28:00,
2013-02-21 04:33:00,22.8,10.1,30.24,NW,315,0.0,0.0,58,0.00,,,0.00,WUHU216HW,2013-02-21 09:33:00,
2013-02-21 04:38:00,22.8,10.1,30.24,NW,315,0.0,0.0,58,0.00,,,0.00,WUHU216HW,2013-02-21 09:38:00,
2013-02-21 04:43:00,22.8,10.1,30.24,NW,315,0.0,0.0,58,0.00,,,0.00,WUHU216HW,2013-02-21 09:43:00,
2013-02-21 04:48:00,22.8,10.1,30.24,NW,315,0.0,0.0,58,0.00,,,0.00,WUHU216HW,2013-02-21 09:48:00,
2013-02-21 04:53:00,22.6,9.9,30.24,NW,315,0.0,0.0,58,0.00,,,0.00,WUHU216HW,2013-02-21 09:53:00,
2013-02-21 04:58:00,22.6,9.9,30.24,NW,315,0.0,0.0,58,0.00,,,0.00,WUHU216HW,2013-02-21 09:58:00,
2013-02-21 05:03:00,22.4,10.2,30.24,NW,315,0.0,0.0,59,0.00,,,0.00,WUHU216HW,2013-02-21 10:03:00,
2013-02-21 05:08:00,22.4,10.2,30.24,NW,315,0.0,0.0,59,0.00,,,0.00,WUHU216HW,2013-02-21 10:08:00,
2013-02-21 05:13:00,22.2,10.0,30.25,NW,315,0.0,0.0,59,0.00,,,0.00,WUHU216HW,2013-02-21 10:13:00,
2013-02-21 05:18:00,22.2,10.0,30.25,NW,315,0.0,0.0,59,0.00,,,0.00,WUHU216HW,2013-02-21 10:18:00,
2013-02-21 05:23:00,22.1,9.8,30.25,NW,315,0.0,0.0,59,0.00,,,0.00,WUHU216HW,2013-02-21 10:23:00,
2013-02-21 05:28:00,22.1,9.8,30.25,NW,315,0.0,0.0,59,0.00,,,0.00,WUHU216HW,2013-02-21 10:28:00,
2013-02-21 05:33:00,21.9,9.7,30.26,NW,315,0.0,0.0,59,0.00,,,0.00,WUHU216HW,2013-02-21 10:33:00,
2013-02-21 05:38:00,21.9,10.1,30.26,NW,315,0.0,0.0,60,0.00,,,0.00,WUHU216HW,2013-02-21 10:38:00,
2013-02-21 05:43:00,21.9,10.1,30.26,NW,315,0.0,0.0,60,0.00,,,0.00,WUHU216HW,2013-02-21 10:43:00,
2013-02-21 05:48:00,21.9,10.4,30.26,NW,315,0.0,0.0,61,0.00,,,0.00,WUHU216HW,2013-02-21 10:48:00,
2013-02-21 05:53:00,21.9,10.4,30.26,NW,315,0.0,0.0,61,0.00,,,0.00,WUHU216HW,2013-02-21 10:53:00,
2013-02-21 05:58:00,21.9,10.1,30.26,NW,315,0.0,0.0,60,0.00,,,0.00,WUHU216HW,2013-02-21 10:58:00,
2013-02-21 06:03:00,21.7,10.3,30.26,NW,315,0.0,0.0,61,0.00,,,0.00,WUHU216HW,2013-02-21 11:03:00,
2013-02-21 06:08:00,21.7,10.3,30.26,NW,315,0.0,0.0,61,0.00,,,0.00,WUHU216HW,2013-02-21 11:08:00,
2013-02-21 06:13:00,21.7,10.6,30.27,NW,315,0.0,0.0,62,0.00,,,0.00,WUHU216HW,2013-02-21 11:13:00,
2013-02-21 06:18:00,21.5,10.5,30.26,NW,315,0.0,0.0,62,0.00,,,0.00,WUHU216HW,2013-02-21 11:18:00,
2013-02-21 06:23:00,21.5,10.8,30.27,NW,315,0.0,0.0,63,0.00,,,0.00,WUHU216HW,2013-02-21 11:23:00,
2013-02-21 06:28:00,21.5,10.8,30.27,NW,315,0.0,0.0,63,0.00,,,0.00,WUHU216HW,2013-02-21 11:28:00,
2013-02-21 06:33:00,21.5,10.8,30.27,NW,315,0.0,0.0,63,0.00,,,0.00,WUHU216HW,2013-02-21 11:33:00,
2013-02-21 06:38:00,21.3,10.6,30.27,NW,315,0.0,0.0,63,0.00,,,0.00,WUHU216HW,2013-02-21 11:38:00,
2013-02-21 06:43:00,21.3,10.3,30.27,NW,315,0.0,0.0,62,0.00,,,0.00,WUHU216HW,2013-02-21 11:43:00,
2013-02-21 06:48:00,21.2,10.1,30.28,NW,315,0.0,0.0,62,0.00,,,0.00,WUHU216HW,2013-02-21 11:48:00,
2013-02-21 06:53:00,21.0,10.3,30.28,NW,315,0.0,0.0,63,0.00,,,0.00,WUHU216HW,2013-02-21 11:53:00,
2013-02-21 06:58:00,21.0,10.0,30.28,NW,315,0.0,0.0,62,0.00,,,0.00,WUHU216HW,2013-02-21 11:58:00,
2013-02-21 07:03:00,20.8,9.8,30.28,NW,315,0.0,0.0,62,0.00,,,0.00,WUHU216HW,2013-02-21 12:03:00,
2013-02-21 07:08:00,20.8,10.1,30.29,NW,315,0.0,0.0,63,0.00,,,0.00,WUHU216HW,2013-02-21 12:08:00,
2013-02-21 07:13:00,20.8,10.1,30.29,NW,315,0.0,0.0,63,0.00,,,0.00,WUHU216HW,2013-02-21 12:13:00,
2013-02-21 07:18:00,20.8,10.5,30.29,NW,315,0.0,0.0,64,0.00,,,0.00,WUHU216HW,2013-02-21 12:18:00,
2013-02-21 07:23:00,20.8,10.5,30.29,NW,315,0.0,0.0,64,0.00,,,0.00,WUHU216HW,2013-02-21 12:23:00,
2013-02-21 07:28:00,20.8,10.5,30.29,NW,315,0.0,0.0,64,0.00,,,0.00,WUHU216HW,2013-02-21 12:28:00,
2013-02-21 07:33:00,20.4,9.8,30.29,NW,315,0.0,0.0,63,0.00,,,0.00,WUHU216HW,2013-02-21 12:33:00,
2013-02-21 07:38:00,20.4,9.8,30.29,NW,315,0.0,0.0,63,0.00,,,0.00,WUHU216HW,2013-02-21 12:38:00,
2013-02-21 07:43:00,20.4,9.8,30.29,NW,315,0.0,0.0,63,0.00,,,0.00,WUHU216HW,2013-02-21 12:43:00,
2013-02-21 07:48:00,20.4,10.1,30.30,NW,315,0.0,0.0,64,0.00,,,0.00,WUHU216HW,2013-02-21 12:48:00,
2013-02-21 07:53:00,20.8,10.8,30.30,NW,315,0.0,0.0,65,0.00,,,0.00,WUHU216HW,2013-02-21 12:53:00,
2013-02-21 07:58:00,21.0,10.8,30.30,NW,315,0.0,0.0,65,0.00,,,0.00,WUHU216HW,2013-02-21 12:58:00,
2013-02-21 08:03:00,21.0,11.3,30.30,NW,315,0.0,0.0,66,0.00,,,0.00,WUHU216HW,2013-02-21 13:03:00,
2013-02-21 08:08:00,21.3,11.7,30.29,NW,315,0.0,0.0,66,0.00,,,0.00,WUHU216HW,2013-02-21 13:08:00,
2013-02-21 08:13:00,21.3,11.7,30.29,NW,315,0.0,0.0,66,0.00,,,0.00,WUHU216HW,2013-02-21 13:13:00,
2013-02-21 08:18:00,21.7,12.0,30.29,NW,315,0.0,0.0,66,0.00,,,0.00,WUHU216HW,2013-02-21 13:18:00,
2013-02-21 08:23:00,21.9,12.2,30.29,NW,315,0.0,0.0,66,0.00,,,0.00,WUHU216HW,2013-02-21 13:23:00,
2013-02-21 08:28:00,22.4,13.1,30.30,NW,315,0.0,0.0,67,0.00,,,0.00,WUHU216HW,2013-02-21 13:28:00,
2013-02-21 08:34:00,22.8,13.4,30.30,NW,315,0.0,0.0,67,0.00,,,0.00,WUHU216HW,2013-02-21 13:34:00,
2013-02-21 08:39:00,23.3,13.9,30.30,NW,315,0.0,0.0,67,0.00,,,0.00,WUHU216HW,2013-02-21 13:39:00,
2013-02-21 08:44:00,23.7,14.6,30.30,NW,315,0.0,0.0,67,0.00,,,0.00,WUHU216HW,2013-02-21 13:44:00,
2013-02-21 08:49:00,24.6,14.7,30.29,NW,315,0.0,0.0,66,0.00,,,0.00,WUHU216HW,2013-02-21 13:49:00,
2013-02-21 08:54:00,25.3,15.4,30.30,NW,315,0.0,0.0,66,0.00,,,0.00,WUHU216HW,2013-02-21 13:54:00,
2013-02-21 08:59:00,26.2,15.6,30.30,NW,315,0.0,0.0,64,0.00,,,0.00,WUHU216HW,2013-02-21 13:59:00,
2013-02-21 09:04:00,27.1,16.1,30.31,NW,315,0.0,0.0,63,0.00,,,0.00,WUHU216HW,2013-02-21 14:04:00,
2013-02-21 09:09:00,27.6,17.0,30.30,NW,315,0.0,0.0,64,0.00,,,0.00,WUHU216HW,2013-02-21 14:09:00,
2013-02-21 09:14:00,29.1,17.7,30.30,NW,315,0.0,0.0,62,0.00,,,0.00,WUHU216HW,2013-02-21 14:14:00,
2013-02-21 09:19:00,29.8,18.3,30.30,NW,315,0.0,0.0,62,0.00,,,0.00,WUHU216HW,2013-02-21 14:19:00,
2013-02-21 09:24:00,30.7,18.8,30.30,NW,315,0.0,0.0,61,0.00,,,0.00,WUHU216HW,2013-02-21 14:24:00,
2013-02-21 09:29:00,31.8,19.1,30.30,NW,315,0.0,0.0,59,0.00,,,0.00,WUHU216HW,2013-02-21 14:29:00,
2013-02-21 09:34:00,32.5,19.3,30.30,NW,315,0.0,0.0,58,0.00,,,0.00,WUHU216HW,2013-02-21 14:34:00,
2013-02-21 09:39:00,33.0,19.8,30.30,NW,315,0.0,0.0,58,0.00,,,0.00,WUHU216HW,2013-02-21 14:39:00,
2013-02-21 09:44:00,33.6,19.4,30.30,NW,315,0.0,0.0,56,0.00,,,0.00,WUHU216HW,2013-02-21 14:44:00,
2013-02-21 09:49:00,34.3,19.7,30.30,NW,315,0.0,0.0,55,0.00,,,0.00,WUHU216HW,2013-02-21 14:49:00,
2013-02-21 09:54:00,34.8,19.8,30.30,NW,315,0.0,0.0,54,0.00,,,0.00,WUHU216HW,2013-02-21 14:54:00,
2013-02-21 09:59:00,35.7,20.7,30.30,NW,315,0.0,0.0,54,0.00,,,0.00,WUHU216HW,2013-02-21 14:59:00,
2013-02-21 10:04:00,36.5,20.9,30.30,NW,315,0.0,0.0,53,0.00,,,0.00,WUHU216HW,2013-02-21 15:04:00,
2013-02-21 10:09:00,37.0,21.0,30.30,NW,315,0.0,0.0,52,0.00,,,0.00,WUHU216HW,2013-02-21 15:09:00,
2013-02-21 10:14:00,37.9,21.8,30.30,NW,315,0.0,0.0,52,0.00,,,0.00,WUHU216HW,2013-02-21 15:14:00,
2013-02-21 10:19:00,38.8,22.2,30.29,NW,315,0.0,0.0,51,0.00,,,0.00,WUHU216HW,2013-02-21 15:19:00,
2013-02-21 10:24:00,39.5,22.2,30.29,NW,315,0.0,0.0,50,0.00,,,0.00,WUHU216HW,2013-02-21 15:24:00,
2013-02-21 10:29:00,40.2,23.0,30.29,NW,315,0.0,0.0,50,0.00,,,0.00,WUHU216HW,2013-02-21 15:29:00,
2013-02-21 10:34:00,40.8,22.5,30.29,NW,315,0.0,0.0,48,0.00,,,0.00,WUHU216HW,2013-02-21 15:34:00,
2013-02-21 10:39:00,41.1,22.3,30.29,NW,315,0.0,0.0,47,0.00,,,0.00,WUHU216HW,2013-02-21 15:39:00,
2013-02-21 10:44:00,42.0,23.1,30.29,NW,315,0.0,0.0,47,0.00,,,0.00,WUHU216HW,2013-02-21 15:44:00,
2013-02-21 10:49:00,42.6,23.1,30.29,NW,315,0.0,0.0,46,0.00,,,0.00,WUHU216HW,2013-02-21 15:49:00,
2013-02-21 10:54:00,43.5,23.4,30.29,NW,315,0.0,0.0,45,0.00,,,0.00,WUHU216HW,2013-02-21 15:54:00,
2013-02-21 10:59:00,43.8,23.7,30.29,NW,315,0.0,0.0,45,0.00,,,0.00,WUHU216HW,2013-02-21 15:59:00,
2013-02-21 11:04:00,44.7,24.0,30.28,SSE,158,0.0,0.0,44,0.00,,,0.00,WUHU216HW,2013-02-21 16:04:00,
2013-02-21 11:09:00,45.6,24.3,30.28,SSE,158,0.0,0.0,43,0.00,,,0.00,WUHU216HW,2013-02-21 16:09:00,
2013-02-21 11:14:00,46.0,24.1,30.28,SSE,158,0.0,0.0,42,0.00,,,0.00,WUHU216HW,2013-02-21 16:14:00,
2013-02-21 11:19:00,46.0,23.5,30.28,SSE,158,0.0,0.0,41,0.00,,,0.00,WUHU216HW,2013-02-21 16:19:00,
2013-02-21 11:24:00,46.2,23.5,30.28,SSE,158,0.0,0.0,41,0.00,,,0.00,WUHU216HW,2013-02-21 16:24:00,
2013-02-21 11:29:00,46.7,24.2,30.27,SSE,158,0.0,0.0,41,0.00,,,0.00,WUHU216HW,2013-02-21 16:29:00,
2013-02-21 11:34:00,47.3,24.1,30.27,SSE,158,0.0,0.0,40,0.00,,,0.00,WUHU216HW,2013-02-21 16:34:00,
2013-02-21 11:39:00,48.0,24.8,30.27,SSE,158,0.0,0.0,40,0.00,,,0.00,WUHU216HW,2013-02-21 16:39:00,
2013-02-21 11:44:00,48.7,24.7,30.26,West,270,0.0,0.0,39,0.00,,,0.00,WUHU216HW,2013-02-21 16:44:00,
2013-02-21 11:49:00,49.1,24.4,30.26,West,270,0.0,0.0,38,0.00,,,0.00,WUHU216HW,2013-02-21 16:49:00,
2013-02-21 11:54:00,49.6,23.7,30.26,WNW,293,0.0,0.0,36,0.00,,,0.00,WUHU216HW,2013-02-21 16:54:00,
2013-02-21 11:59:00,49.8,23.7,30.26,NW,315,0.0,0.0,36,0.00,,,0.00,WUHU216HW,2013-02-21 16:59:00,
2013-02-21 12:04:00,50.1,23.3,30.25,NNW,338,0.0,0.0,35,0.00,,,0.00,WUHU216HW,2013-02-21 17:04:00,
2013-02-21 12:09:00,50.1,22.6,30.25,NNW,338,0.0,0.0,34,0.00,,,0.00,WUHU216HW,2013-02-21 17:09:00,
2013-02-21 12:14:00,50.7,23.1,30.24,NNW,338,0.0,0.0,34,0.00,,,0.00,WUHU216HW,2013-02-21 17:14:00,
2013-02-21 12:19:00,51.0,22.7,30.24,NNW,338,0.0,0.0,33,0.00,,,0.00,WUHU216HW,2013-02-21 17:19:00,
2013-02-21 12:24:00,51.8,23.2,30.23,NNW,338,0.0,0.0,33,0.00,,,0.00,WUHU216HW,2013-02-21 17:24:00,
2013-02-21 12:29:00,52.3,23.2,30.23,NNW,338,0.0,0.0,32,0.00,,,0.00,WUHU216HW,2013-02-21 17:29:00,
2013-02-21 12:34:00,52.7,22.8,30.23,NNW,338,0.0,0.0,31,0.00,,,0.00,WUHU216HW,2013-02-21 17:34:00,
2013-02-21 12:39:00,52.8,23.7,30.22,NNW,338,0.0,0.0,32,0.00,,,0.00,WUHU216HW,2013-02-21 17:39:00,
2013-02-21 12:44:00,53.7,24.5,30.22,NNW,338,0.0,0.0,32,0.00,,,0.00,WUHU216HW,2013-02-21 17:44:00,
2013-02-21 12:49:00,54.1,23.4,30.22,NW,315,0.0,0.0,30,0.00,,,0.00,WUHU216HW,2013-02-21 17:49:00,
2013-02-21 12:54:00,54.1,23.4,30.22,NW,315,0.0,0.0,30,0.00,,,0.00,WUHU216HW,2013-02-21 17:54:00,
2013-02-21 12:59:00,54.5,23.7,30.22,NW,315,0.0,0.0,30,0.00,,,0.00,WUHU216HW,2013-02-21 17:59:00,
2013-02-21 13:04:00,54.6,22.9,30.21,NW,315,0.0,0.0,29,0.00,,,0.00,WUHU216HW,2013-02-21 18:04:00,
2013-02-21 13:09:00,55.0,22.2,30.21,NW,315,0.0,0.0,28,0.00,,,0.00,WUHU216HW,2013-02-21 18:09:00,
2013-02-21 13:14:00,55.2,21.4,30.21,WNW,293,0.0,0.0,27,0.00,,,0.00,WUHU216HW,2013-02-21 18:14:00,
2013-02-21 13:19:00,55.2,21.4,30.20,NNW,338,0.0,0.0,27,0.00,,,0.00,WUHU216HW,2013-02-21 18:19:00,
2013-02-21 13:24:00,55.2,20.5,30.19,NW,315,0.0,0.0,26,0.00,,,0.00,WUHU216HW,2013-02-21 18:24:00,
2013-02-21 13:29:00,55.5,20.8,30.19,WNW,293,0.0,0.0,26,0.00,,,0.00,WUHU216HW,2013-02-21 18:29:00,
2013-02-21 13:34:00,55.5,19.9,30.19,NW,315,0.0,0.0,25,0.00,,,0.00,WUHU216HW,2013-02-21 18:34:00,
2013-02-21 13:39:00,55.5,19.9,30.19,NW,315,0.0,0.0,25,0.00,,,0.00,WUHU216HW,2013-02-21 18:39:00,
2013-02-21 13:44:00,55.5,19.9,30.18,NW,315,0.0,0.0,25,0.00,,,0.00,WUHU216HW,2013-02-21 18:44:00,
2013-02-21 13:49:00,55.7,20.0,30.18,NW,315,0.0,0.0,25,0.00,,,0.00,WUHU216HW,2013-02-21 18:49:00,
2013-02-21 13:54:00,56.1,20.2,30.17,NW,315,0.0,0.0,25,0.00,,,0.00,WUHU216HW,2013-02-21 18:54:00,
2013-02-21 13:59:00,56.3,19.5,30.16,NNW,338,0.0,0.0,24,0.00,,,0.00,WUHU216HW,2013-02-21 18:59:00,
2013-02-21 14:04:00,56.4,17.8,30.17,NW,315,0.0,0.0,22,0.00,,,0.00,WUHU216HW,2013-02-21 19:04:00,
2013-02-21 14:09:00,56.3,17.8,30.17,NNW,338,0.0,0.0,22,0.00,,,0.00,WUHU216HW,2013-02-21 19:09:00,
2013-02-21 14:14:00,56.4,18.7,30.17,NNW,338,0.0,0.0,23,0.00,,,0.00,WUHU216HW,2013-02-21 19:14:00,
2013-02-21 14:19:00,56.8,18.1,30.17,NNW,338,0.0,0.0,22,0.00,,,0.00,WUHU216HW,2013-02-21 19:19:00,
2013-02-21 14:24:00,56.8,18.1,30.17,NNW,338,0.0,0.0,22,0.00,,,0.00,WUHU216HW,2013-02-21 19:24:00,
2013-02-21 14:29:00,57.0,20.1,30.16,NNW,338,0.0,0.0,24,0.00,,,0.00,WUHU216HW,2013-02-21 19:29:00,
2013-02-21 14:34:00,57.3,18.5,30.17,NNW,338,0.0,0.0,22,0.00,,,0.00,WUHU216HW,2013-02-21 19:34:00,
2013-02-21 14:39:00,57.5,19.6,30.17,West,270,0.0,0.0,23,0.00,,,0.00,WUHU216HW,2013-02-21 19:39:00,
2013-02-21 14:44:00,57.7,18.8,30.17,West,270,0.0,0.0,22,0.00,,,0.00,WUHU216HW,2013-02-21 19:44:00,
2013-02-21 14:49:00,57.9,19.0,30.17,WNW,293,0.0,0.0,22,0.00,,,0.00,WUHU216HW,2013-02-21 19:49:00,
2013-02-21 14:54:00,58.1,21.0,30.18,WNW,293,0.0,0.0,24,0.00,,,0.00,WUHU216HW,2013-02-21 19:54:00,
2013-02-21 14:59:00,58.2,22.2,30.18,WNW,293,0.0,0.0,25,0.00,,,0.00,WUHU216HW,2013-02-21 19:59:00,
2013-02-21 15:05:00,58.4,21.3,30.18,West,270,0.0,0.0,24,0.00,,,0.00,WUHU216HW,2013-02-21 20:05:00,
2013-02-21 15:10:00,58.6,21.5,30.18,West,270,0.0,0.0,24,0.00,,,0.00,WUHU216HW,2013-02-21 20:10:00,
2013-02-21 15:15:00,58.8,19.7,30.17,WNW,293,0.0,0.0,22,0.00,,,0.00,WUHU216HW,2013-02-21 20:15:00,
2013-02-21 15:20:00,58.6,19.5,30.18,NE,45,0.0,0.0,22,0.00,,,0.00,WUHU216HW,2013-02-21 20:20:00,
2013-02-21 15:25:00,58.6,19.5,30.18,NE,45,0.0,0.0,22,0.00,,,0.00,WUHU216HW,2013-02-21 20:25:00,
2013-02-21 15:30:00,58.8,21.6,30.18,ESE,113,0.0,0.0,24,0.00,,,0.00,WUHU216HW,2013-02-21 20:30:00,
2013-02-21 15:35:00,58.8,21.6,30.17,East,90,0.0,0.0,24,0.00,,,0.00,WUHU216HW,2013-02-21 20:35:00,
2013-02-21 15:40:00,59.1,21.9,30.18,East,90,0.0,0.0,24,0.00,,,0.00,WUHU216HW,2013-02-21 20:40:00,
2013-02-21 15:45:00,59.3,22.1,30.17,East,90,0.0,0.0,24,0.00,,,0.00,WUHU216HW,2013-02-21 20:45:00,
2013-02-21 15:50:00,59.5,23.2,30.17,East,90,0.0,0.0,25,0.00,,,0.00,WUHU216HW,2013-02-21 20:50:00,
2013-02-21 15:55:00,59.5,23.2,30.16,East,90,0.0,0.0,25,0.00,,,0.00,WUHU216HW,2013-02-21 20:55:00,
2013-02-21 16:00:00,59.7,22.4,30.16,East,90,0.0,0.0,24,0.00,,,0.00,WUHU216HW,2013-02-21 21:00:00,
2013-02-21 16:05:00,59.5,23.2,30.16,East,90,0.0,0.0,25,0.00,,,0.00,WUHU216HW,2013-02-21 21:05:00,
2013-02-21 16:10:00,59.5,23.2,30.16,East,90,0.0,0.0,25,0.00,,,0.00,WUHU216HW,2013-02-21 21:10:00,
2013-02-21 16:15:00,59.7,24.3,30.16,East,90,0.0,0.0,26,0.00,,,0.00,WUHU216HW,2013-02-21 21:15:00,
2013-02-21 16:20:00,59.7,24.3,30.16,East,90,0.0,0.0,26,0.00,,,0.00,WUHU216HW,2013-02-21 21:20:00,
2013-02-21 16:25:00,59.7,24.3,30.16,East,90,0.0,0.0,26,0.00,,,0.00,WUHU216HW,2013-02-21 21:25:00,
2013-02-21 16:30:00,59.7,25.3,30.16,East,90,0.0,0.0,27,0.00,,,0.00,WUHU216HW,2013-02-21 21:30:00,
2013-02-21 16:35:00,59.3,25.0,30.16,ESE,113,0.0,0.0,27,0.00,,,0.00,WUHU216HW,2013-02-21 21:35:00,
2013-02-21 16:40:00,59.3,24.0,30.16,ESE,113,0.0,0.0,26,0.00,,,0.00,WUHU216HW,2013-02-21 21:40:00,
2013-02-21 16:45:00,59.0,23.9,30.16,ESE,113,0.0,0.0,26,0.00,,,0.00,WUHU216HW,2013-02-21 21:45:00,
2013-02-21 16:50:00,58.8,23.6,30.16,SSE,158,0.0,0.0,26,0.00,,,0.00,WUHU216HW,2013-02-21 21:50:00,
2013-02-21 16:55:00,58.8,23.6,30.15,SSE,158,0.0,0.0,26,0.00,,,0.00,WUHU216HW,2013-02-21 21:55:00,
2013-02-21 17:00:00,58.8,24.6,30.15,SSE,158,0.0,0.0,27,0.00,,,0.00,WUHU216HW,2013-02-21 22:00:00,
2013-02-21 17:05:00,58.2,24.1,30.15,SSE,158,0.0,0.0,27,0.00,,,0.00,WUHU216HW,2013-02-21 22:05:00,
2013-02-21 17:10:00,58.1,24.9,30.15,SSE,158,0.0,0.0,28,0.00,,,0.00,WUHU216HW,2013-02-21 22:10:00,
2013-02-21 17:15:00,57.9,23.8,30.15,SSE,158,0.0,0.0,27,0.00,,,0.00,WUHU216HW,2013-02-21 22:15:00,
2013-02-21 17:20:00,57.7,23.6,30.15,SSE,158,0.0,0.0,27,0.00,,,0.00,WUHU216HW,2013-02-21 22:20:00,
2013-02-21 17:25:00,57.5,23.5,30.15,SE,135,0.0,0.0,27,0.00,,,0.00,WUHU216HW,2013-02-21 22:25:00,
2013-02-21 17:30:00,57.3,24.1,30.16,SE,135,0.0,0.0,28,0.00,,,0.00,WUHU216HW,2013-02-21 22:30:00,
2013-02-21 17:35:00,57.0,23.9,30.16,SSE,158,0.0,0.0,28,0.00,,,0.00,WUHU216HW,2013-02-21 22:35:00,
2013-02-21 17:40:00,57.0,23.9,30.16,SE,135,0.0,0.0,28,0.00,,,0.00,WUHU216HW,2013-02-21 22:40:00,
2013-02-21 17:45:00,56.8,23.8,30.17,SSE,158,0.0,0.0,28,0.00,,,0.00,WUHU216HW,2013-02-21 22:45:00,
2013-02-21 17:50:00,56.4,23.5,30.17,SSE,158,0.0,0.0,28,0.00,,,0.00,WUHU216HW,2013-02-21 22:50:00,
2013-02-21 17:55:00,56.3,23.3,30.17,ESE,113,0.0,0.0,28,0.00,,,0.00,WUHU216HW,2013-02-21 22:55:00,
2013-02-21 18:00:00,55.9,23.9,30.17,SSE,158,0.0,0.0,29,0.00,,,0.00,WUHU216HW,2013-02-21 23:00:00,
2013-02-21 18:05:00,55.7,23.8,30.16,SE,135,0.4,0.4,29,0.00,,,0.00,WUHU216HW,2013-02-21 23:05:00,
2013-02-21 18:10:00,55.4,23.5,30.16,SSE,158,0.0,0.4,29,0.00,,,0.00,WUHU216HW,2013-02-21 23:10:00,
2013-02-21 18:15:00,55.2,23.3,30.16,SE,135,0.0,0.4,29,0.00,,,0.00,WUHU216HW,2013-02-21 23:15:00,
2013-02-21 18:20:00,55.0,23.1,30.16,SSE,158,0.0,0.0,29,0.00,,,0.00,WUHU216HW,2013-02-21 23:20:00,
2013-02-21 18:25:00,54.6,22.9,30.17,SE,135,0.0,0.0,29,0.00,,,0.00,WUHU216HW,2013-02-21 23:25:00,
2013-02-21 18:30:00,54.3,23.5,30.17,SE,135,2.6,2.6,30,0.00,,,0.00,WUHU216HW,2013-02-21 23:30:00,
2013-02-21 18:35:00,54.1,23.4,30.16,SE,135,0.0,3.5,30,0.00,,,0.00,WUHU216HW,2013-02-21 23:35:00,
2013-02-21 18:40:00,53.9,23.2,30.16,SE,135,0.0,3.5,30,0.00,,,0.00,WUHU216HW,2013-02-21 23:40:00,
2013-02-21 18:45:00,53.7,23.1,30.16,SE,135,0.0,1.5,30,0.00,,,0.00,WUHU216HW,2013-02-21 23:45:00,
2013-02-21 18:50:00,53.4,22.8,30.16,SSE,158,0.0,0.0,30,0.00,,,0.00,WUHU216HW,2013-02-21 23:50:00,
2013-02-21 18:55:00,53.2,22.6,30.16,SE,135,0.0,0.0,30,0.00,,,0.00,WUHU216HW,2013-02-21 23:55:00,
2013-02-21 19:00:00,53.0,22.5,30.16,SE,135,2.9,2.9,30,0.00,,,0.00,WUHU216HW,2013-02-22 00:00:00,
2013-02-21 19:05:00,52.8,23.0,30.16,SE,135,0.0,2.9,31,0.00,,,0.00,WUHU216HW,2013-02-22 00:05:00,
2013-02-21 19:10:00,52.5,22.7,30.16,SE,135,0.0,0.0,31,0.00,,,0.00,WUHU216HW,2013-02-22 00:10:00,
2013-02-21 19:15:00,52.3,22.5,30.16,SE,135,0.0,0.0,31,0.00,,,0.00,WUHU216HW,2013-02-22 00:15:00,
2013-02-21 19:20:00,52.1,22.3,30.16,SE,135,0.0,0.0,31,0.00,,,0.00,WUHU216HW,2013-02-22 00:20:00,
2013-02-21 19:25:00,51.9,22.9,30.16,SSE,158,0.0,0.0,32,0.00,,,0.00,WUHU216HW,2013-02-22 00:25:00,
2013-02-21 19:30:00,51.6,22.5,30.17,SSE,158,0.0,0.0,32,0.00,,,0.00,WUHU216HW,2013-02-22 00:30:00,
2013-02-21 19:35:00,51.6,22.5,30.17,SE,135,0.0,0.0,32,0.00,,,0.00,WUHU216HW,2013-02-22 00:35:00,
2013-02-21 19:40:00,51.4,22.4,30.18,ESE,113,0.0,0.0,32,0.00,,,0.00,WUHU216HW,2013-02-22 00:40:00,
2013-02-21 19:45:00,51.0,22.1,30.18,SE,135,0.0,0.0,32,0.00,,,0.00,WUHU216HW,2013-02-22 00:45:00,
2013-02-21 19:50:00,51.0,22.1,30.18,SE,135,0.0,0.0,32,0.00,,,0.00,WUHU216HW,2013-02-22 00:50:00,
2013-02-21 19:55:00,50.9,21.9,30.19,SSE,158,0.0,2.2,32,0.00,,,0.00,WUHU216HW,2013-02-22 00:55:00,
2013-02-21 20:00:00,50.7,21.7,30.19,SSE,158,0.0,2.2,32,0.00,,,0.00,WUHU216HW,2013-02-22 01:00:00,
2013-02-21 20:05:00,50.7,21.7,30.19,South,180,0.0,0.0,32,0.00,,,0.00,WUHU216HW,2013-02-22 01:05:00,
2013-02-21 20:10:00,50.5,21.6,30.20,SE,135,0.0,0.0,32,0.00,,,0.00,WUHU216HW,2013-02-22 01:10:00,
2013-02-21 20:15:00,50.3,21.4,30.19,SSE,158,0.0,0.0,32,0.00,,,0.00,WUHU216HW,2013-02-22 01:15:00,
2013-02-21 20:20:00,50.1,21.2,30.20,SSE,158,0.0,0.0,32,0.00,,,0.00,WUHU216HW,2013-02-22 01:20:00,
2013-02-21 20:25:00,50.1,21.2,30.19,South,180,0.0,0.0,32,0.00,,,0.00,WUHU216HW,2013-02-22 01:25:00,
2013-02-21 20:30:00,49.8,20.9,30.19,SE,135,0.0,0.0,32,0.00,,,0.00,WUHU216HW,2013-02-22 01:30:00,
2013-02-21 20:35:00,49.8,21.6,30.20,ESE,113,0.0,0.0,33,0.00,,,0.00,WUHU216HW,2013-02-22 01:35:00,
2013-02-21 20:40:00,49.6,22.1,30.22,ESE,113,0.0,0.0,34,0.00,,,0.00,WUHU216HW,2013-02-22 01:40:00,
2013-02-21 20:45:00,49.4,22.7,30.23,ESE,113,0.0,0.0,35,0.00,,,0.00,WUHU216HW,2013-02-22 01:45:00,
2013-02-21 20:51:00,49.2,23.2,30.24,ESE,113,0.0,0.0,36,0.00,,,0.00,WUHU216HW,2013-02-22 01:51:00,
2013-02-21 20:56:00,48.9,23.5,30.24,ESE,113,0.0,0.0,37,0.00,,,0.00,WUHU216HW,2013-02-22 01:56:00,
2013-02-21 21:01:00,48.5,23.9,30.26,ESE,113,0.0,0.0,38,0.00,,,0.00,WUHU216HW,2013-02-22 02:01:00,
2013-02-21 21:06:00,48.2,24.9,30.26,SSE,158,0.0,0.0,40,0.00,,,0.00,WUHU216HW,2013-02-22 02:06:00,
2013-02-21 21:11:00,47.3,26.3,30.26,SE,135,0.0,0.0,44,0.00,,,0.00,WUHU216HW,2013-02-22 02:11:00,
2013-02-21 21:16:00,46.7,26.3,30.26,SSE,158,0.0,0.0,45,0.00,,,0.00,WUHU216HW,2013-02-22 02:16:00,
2013-02-21 21:21:00,46.2,26.9,30.27,SSE,158,0.0,0.0,47,0.02,,,0.02,WUHU216HW,2013-02-22 02:21:00,
2013-02-21 21:26:00,45.3,27.2,30.26,SE,135,0.0,0.0,49,0.02,,,0.02,WUHU216HW,2013-02-22 02:26:00,
2013-02-21 21:31:00,44.7,27.7,30.26,SE,135,0.0,7.6,51,0.02,,,0.02,WUHU216HW,2013-02-22 02:31:00,
2013-02-21 21:36:00,44.2,27.6,30.26,SE,135,0.0,7.6,52,0.04,,,0.04,WUHU216HW,2013-02-22 02:36:00,
2013-02-21 21:41:00,43.5,27.0,30.26,SE,135,0.0,0.0,52,0.04,,,0.04,WUHU216HW,2013-02-22 02:41:00,
2013-02-21 21:46:00,43.3,27.3,30.25,SE,135,0.0,2.2,53,0.04,,,0.04,WUHU216HW,2013-02-22 02:46:00,
2013-02-21 21:51:00,43.1,27.1,30.23,SE,135,0.0,2.2,53,0.04,,,0.04,WUHU216HW,2013-02-22 02:51:00,
2013-02-21 21:56:00,42.9,27.4,30.23,SSE,158,0.0,0.0,54,0.04,,,0.04,WUHU216HW,2013-02-22 02:56:00,
2013-02-21 22:01:00,42.6,27.5,30.24,SSE,158,0.0,0.0,55,0.04,,,0.04,WUHU216HW,2013-02-22 03:01:00,
2013-02-21 22:06:00,42.6,28.3,30.25,SSE,158,0.0,0.0,57,0.04,,,0.04,WUHU216HW,2013-02-22 03:06:00,
2013-02-21 22:11:00,42.4,28.2,30.25,SSE,158,0.0,0.0,57,0.04,,,0.04,WUHU216HW,2013-02-22 03:11:00,
2013-02-21 22:16:00,42.2,28.0,30.26,SSE,158,0.0,0.0,57,0.04,,,0.04,WUHU216HW,2013-02-22 03:16:00,
2013-02-21 22:21:00,42.0,27.8,30.26,SSE,158,0.0,0.0,57,0.02,,,0.04,WUHU216HW,2013-02-22 03:21:00,
2013-02-21 22:26:00,42.0,27.8,30.26,SSE,158,0.0,0.0,57,0.02,,,0.04,WUHU216HW,2013-02-22 03:26:00,
2013-02-21 22:31:00,42.0,27.8,30.26,SSE,158,0.0,0.0,57,0.02,,,0.04,WUHU216HW,2013-02-22 03:31:00,
2013-02-21 22:36:00,41.9,28.5,30.26,SE,135,0.0,0.0,59,0.02,,,0.06,WUHU216HW,2013-02-22 03:36:00,
2013-02-21 22:41:00,41.7,28.4,30.27,SSE,158,0.0,0.0,59,0.02,,,0.06,WUHU216HW,2013-02-22 03:41:00,
2013-02-21 22:46:00,41.5,28.7,30.27,SSE,158,0.0,0.0,60,0.02,,,0.06,WUHU216HW,2013-02-22 03:46:00,
2013-02-21 22:51:00,41.5,29.0,30.27,SE,135,0.0,0.0,62,0.02,,,0.06,WUHU216HW,2013-02-22 03:51:00,
2013-02-21 22:56:00,41.3,29.3,30.27,SE,135,0.0,0.0,62,0.02,,,0.06,WUHU216HW,2013-02-22 03:56:00,
2013-02-21 23:01:00,41.1,28.7,30.27,SE,135,0.0,0.0,61,0.04,,,0.08,WUHU216HW,2013-02-22 04:01:00,
2013-02-21 23:06:00,41.1,29.1,30.29,SE,135,0.0,0.0,62,0.04,,,0.08,WUHU216HW,2013-02-22 04:06:00,
2013-02-21 23:11:00,40.8,29.1,30.30,SE,135,0.0,0.0,63,0.04,,,0.08,WUHU216HW,2013-02-22 04:11:00,
2013-02-21 23:16:00,40.8,29.5,30.29,SE,135,0.0,0.0,64,0.04,,,0.08,WUHU216HW,2013-02-22 04:16:00,
2013-02-21 23:21:00,40.6,29.7,30.28,SE,135,0.0,0.0,65,0.06,,,0.10,WUHU216HW,2013-02-22 04:21:00,
2013-02-21 23:26:00,40.4,29.9,30.29,SE,135,0.0,0.0,66,0.08,,,0.10,WUHU216HW,2013-02-22 04:26:00,
2013-02-21 23:31:00,40.2,29.7,30.29,SE,135,0.0,0.0,66,0.08,,,0.12,WUHU216HW,2013-02-22 04:31:00,
2013-02-21 23:36:00,40.1,29.9,30.29,SE,135,0.0,0.0,67,0.06,,,0.12,WUHU216HW,2013-02-22 04:36:00,
2013-02-21 23:41:00,39.9,30.1,30.29,SE,135,0.0,0.0,68,0.08,,,0.14,WUHU216HW,2013-02-22 04:41:00,
2013-02-21 23:46:00,39.9,30.5,30.29,SSE,158,0.0,0.0,69,0.10,,,0.16,WUHU216HW,2013-02-22 04:46:00,
2013-02-21 23:51:00,39.7,30.5,30.29,SSE,158,0.0,0.0,70,0.10,,,0.16,WUHU216HW,2013-02-22 04:51:00,
2013-02-21 23:56:00,39.3,30.3,30.29,SE,135,0.0,0.0,70,0.10,,,0.16,WUHU216HW,2013-02-22 04:56:00,